Terminal Aerodrome Forecast
Issued by NWS

Home | Current Version | Previous Version | Text Only | Print | Product List | Glossary On
Versions: 1 2 3 4 5 6 7 8 9 10 11 12 13 14 15 16 17 18 19 20 21 22 23
000
FTUS41 KILN 230227 AAA
TAFLCK
TAF AMD
KLCK 230227Z 2302/2324 17010G20KT P6SM VCTS OVC025CB
      TEMPO 2302/2306 4SM -SHRA OVC025
     FM230600 22010G16KT P6SM SCT150
     FM231100 22012G22KT P6SM VCSH BKN050
     FM231400 22016G28KT P6SM VCSH OVC022
     FM231800 25018G28KT P6SM VCSH OVC022=

USA.gov is the U.S. government's official web portal to all federal, state and local government web resources and services.